Waterloo, IA

7:05 AM CDT on March 23, 2017 (GMT -0500)
Waterloo Municipal

Weather History for KALO - March, 2014

Change the Weather History Date:

Friday, March 14, 2014

  Actual Average Record
Temperature  
Mean Temperature 39 °F 35 °F  
Max Temperature 46 °F 45 °F 77 °F (2012)
Min Temperature 31 °F 25 °F -10 °F (1960)
Degree Days  
Heating Degree Days 26 30  
Month to date heating degree days 598 461  
Since 1 July heating degree days 7006 5880  
Cooling Degree Days 0 0  
Month to date cooling degree days 0 0  
Year to date cooling degree days 0 0  
Moisture  
Dew Point 32 °F    
Average Humidity 70    
Maximum Humidity 82    
Minimum Humidity 57    
Precipitation  
Precipitation 0.00 in 0.06 in 1.19 in (1913)
Month to date precipitation 0.32 0.79  
Year to date precipitation 2.95 2.61  
Snow  
Snow 0.00 in 0.20 in 5.20 in (1959)
Month to date snowfall 4.1 2.5  
Since 1 July snowfall 55.9 31.4  
Snow Depth T in    
Sea Level Pressure  
Sea Level Pressure 29.74 in    
Wind  
Wind Speed 13 mph (WNW)    
Max Wind Speed 24 mph    
Max Gust Speed 31 mph    
Visibility 10 miles    
Events      
T = Trace of Precipitation, MM = Missing Value Source: NWS Daily Summary

Daily Weather History Graph

Daily Weather History Graph

Search for Another Location

Airport or City:

Trip Planner

Search our weather history database for the weather conditions in past years. The results will help you decide how hot, cold, wet, or windy it might be!

Date:

Astronomy

Mar. 14, 2014 Rise Set
Actual Time 7:23 AM CDT 7:14 PM CDT
Civil Twilight 6:55 AM CDT 7:43 PM CDT
Nautical Twilight 6:22 AM CDT 8:15 PM CDT
Astronomical Twilight 5:49 AM CDT 8:49 PM CDT
Moon 5:36 PM CDT (3/14) 6:05 AM CDT (3/14)
Length of Visible Light 12h 47m
Length of Day
11h 51m
Waxing Gibbous, 96% of the Moon is Illuminated
Mar 14
Waxing Gibbous
Mar 16
Full
Mar 23
Last Quarter
Mar 30
New
Apr 7
First Quarter

Hourly Weather History & Observations

Time (CDT) Temp. Windchill Dew Point Humidity Pressure Visibility Wind Dir Wind Speed Gust Speed Precip Events Conditions
12:54 AM 43.0 °F 36.0 °F 32.0 °F 65% 29.63 in 10.0 mi South 13.8 mph - N/A   Clear
1:54 AM 43.0 °F 34.8 °F 30.9 °F 62% 29.60 in 10.0 mi SSW 18.4 mph - N/A   Clear
2:54 AM 43.0 °F 34.2 °F 30.0 °F 60% 29.58 in 10.0 mi SSW 20.7 mph 27.6 mph N/A   Clear
3:54 AM 42.1 °F 35.2 °F 28.9 °F 60% 29.59 in 10.0 mi West 12.7 mph 24.2 mph N/A   Clear
4:54 AM 39.0 °F 31.8 °F 28.9 °F 67% 29.58 in 10.0 mi WSW 11.5 mph - N/A   Clear
5:54 AM 39.0 °F 31.8 °F 28.9 °F 67% 29.59 in 10.0 mi West 11.5 mph - N/A   Clear
6:54 AM 39.0 °F 30.6 °F 30.0 °F 70% 29.60 in 10.0 mi WNW 15.0 mph - N/A   Clear
7:54 AM 37.9 °F 31.5 °F 32.0 °F 79% 29.62 in 10.0 mi WNW 9.2 mph - N/A   Mostly Cloudy
8:54 AM 39.0 °F 31.4 °F 30.9 °F 73% 29.66 in 10.0 mi WNW 12.7 mph - N/A   Clear
9:54 AM 39.9 °F 32.1 °F 32.0 °F 73% 29.68 in 10.0 mi WNW 13.8 mph 26.5 mph N/A   Clear
10:54 AM 42.1 °F 33.9 °F 33.1 °F 70% 29.71 in 10.0 mi WNW 17.3 mph 26.5 mph N/A   Clear
11:54 AM 42.1 °F 32.8 °F 33.1 °F 70% 29.73 in 10.0 mi NW 21.9 mph 29.9 mph N/A   Partly Cloudy
12:54 PM 44.1 °F 36.2 °F 34.0 °F 68% 29.76 in 10.0 mi WNW 18.4 mph 26.5 mph N/A   Partly Cloudy
1:54 PM 45.0 °F 39.3 °F 34.0 °F 65% 29.77 in 10.0 mi WNW 11.5 mph 21.9 mph N/A   Scattered Clouds
2:54 PM 45.0 °F 38.2 °F 35.1 °F 68% 29.78 in 10.0 mi WNW 15.0 mph 24.2 mph N/A   Mostly Cloudy
3:54 PM 45.0 °F 37.9 °F 35.1 °F 68% 29.81 in 10.0 mi NW 16.1 mph 28.8 mph N/A   Overcast
4:54 PM 44.1 °F 36.2 °F 34.0 °F 68% 29.83 in 10.0 mi NW 18.4 mph 26.5 mph N/A   Overcast
5:54 PM 44.1 °F 37.4 °F 33.1 °F 65% 29.85 in 10.0 mi WNW 13.8 mph - N/A   Partly Cloudy
6:54 PM 41.0 °F 35.2 °F 33.1 °F 73% 29.88 in 10.0 mi WNW 9.2 mph - N/A   Partly Cloudy
7:54 PM 39.0 °F 32.8 °F 30.9 °F 73% 29.90 in 10.0 mi West 9.2 mph - N/A   Clear
8:54 PM 37.9 °F 31.5 °F 30.9 °F 76% 29.92 in 10.0 mi West 9.2 mph - N/A   Partly Cloudy
9:54 PM 39.0 °F 32.8 °F 32.0 °F 76% 29.94 in 10.0 mi WNW 9.2 mph - N/A   Scattered Clouds
10:54 PM 36.0 °F 29.0 °F 30.9 °F 82% 29.96 in 10.0 mi NW 9.2 mph - N/A   Partly Cloudy
11:54 PM 35.1 °F 27.4 °F 28.9 °F 78% 29.97 in 10.0 mi NNW 10.4 mph - N/A   Mostly Cloudy